Weather in Sobolokh

Russia / Sakha (Yakutia) Republic     66°15′10″N   143°18′48″E
temp.,
°C
wind,
m/s
gust,
m/s
humid.,
%
clouds,
%
prec.,
mm/h
press.,
hPa
HPBL,
m
26 february, fri
fri2623:00−36se119961 0.0 103119
02:00−36ene009964 0.0 103119
05:00−37wsw0010058 0.0 103119
08:00−37ese1110012 0.0 103219
11:00−33ese008910 0.0 103232
14:00−30nnw10798 0.0 1031194
17:00−29nw118811 0.0 103119
20:00−34wnw019660 0.0 103219
27 february, sat
sat2723:00−35se009650 0.0 103219
02:00−36e019642 0.0 103219
05:00−36sse009821 0.0 103219
08:00−37se019833 0.0 103219
11:00−32nnw008841 0.0 103131
14:00−30n108027 0.0 1030191
17:00−29nw118916 0.0 102919
20:00−35nw11990 0.0 103019
28 february, sun
sun2823:00−36w001000 0.0 103019
02:00−37nnw001000 0.0 102919
05:00−37wsw001000 0.0 102819
08:00−38wsw001000 0.0 102719
11:00−33nnw00941 0.0 102632
14:00−31nnw118613 0.0 1025219
17:00−31nnw119133 0.0 102419
20:00−36wnw1110011 0.0 102519
1 march, mon
mon123:00−37nw0010035 0.0 102519
02:00−37nw0010094 0.0 102419
05:00−38e0010097 0.0 102419
08:00−38ese00100100 0.0 102419
11:00−35ene1197100 0.0 102444
14:00−33ne108484 0.0 1023255
17:00−32nne119070 0.0 102319
20:00−37se001001 0.0 102419
2 march, tue
tue223:00−38se0010017 0.0 102419
02:00−39ese1110076 0.0 102419
05:00−40ese1110058 0.0 102419
08:00−40se1110019 0.0 102519
11:00−36ese119231 0.0 102534
14:00−33ene118135 0.0 1024242
17:00−32nnw119049 0.0 102524
20:00−38nw1110034 0.0 102619